This demonstration page uses our WeatherBlox Daily Observations layout. Learn more.

Left ArrowRight Arrow

Hourly Observations for February 2, 2016

Temp ( °F °C ) Dew Point ( °F °C ) Humidity (%) Winds ( mph kmh ) Pressure ( in mb ) Visibility ( mi km ) Precip ( " mm )
12:53 am 00:53 Cloudy 26 -3.3 23 -5 88 88 Calm 30.10 1019 10 16 0.00 0.00
1:53 am 01:53 Cloudy 26 -3.3 22 -5.6 84 84 NNW 6 9 30.09 1019 10 16 0.00 0.00
2:53 am 02:53 Mostly Cloudy 24 -4.4 21 -6.1 88 88 E 3 6 30.09 1019 10 16 0.00 0.00
3:53 am 03:53 Cloudy 23 -5 21 -6.1 92 92 E 6 9 30.09 1019 10 16 0.00 0.00
4:53 am 04:53 Cloudy 24 -4.4 23 -5 96 96 Calm 30.09 1019 10 16 0.00 0.00
5:53 am 05:53 Cloudy 24 -4.4 22 -5.6 91 91 Calm 30.10 1019 9 14 0.00 0.00
6:53 am 06:53 Cloudy 22 -5.6 21 -6.1 96 96 WSW 3 6 30.11 1020 8 13 0.00 0.00
7:53 am 07:53 Sunny with Mist and Fog 21 -6.1 19 -7.2 92 92 Calm 30.12 1020 6 10 0.00 0.00
8:53 am 08:53 Sunny 23 -5 21 -6.1 92 92 SSW 5 7 30.12 1020 10 16 0.00 0.00
9:53 am 09:53 Sunny 25 -3.9 22 -5.6 88 88 SW 7 11 30.11 1020 10 16 0.00 0.00
10:53 am 10:53 Sunny 30 -1.1 22 -5.6 72 72 SW 17 28 30.10 1019 10 16 0.00 0.00
11:53 am 11:53 Mostly Cloudy 31 -0.6 20 -6.7 64 64 SW 20 31 30.09 1019 10 16 0.00 0.00
12:53 pm 12:53 Mostly Cloudy 33 0.6 20 -6.7 58 58 SW 16 26 30.07 1018 10 16 0.00 0.00
1:53 pm 13:53 Cloudy 32 0 21 -6.1 64 64 WSW 12 19 30.06 1018 10 16 0.00 0.00
2:53 pm 14:53 Sunny 35 1.7 21 -6.1 57 57 WSW 12 19 30.06 1018 10 16 0.00 0.00
3:53 pm 15:53 Partly Cloudy 34 1.1 22 -5.6 61 61 SW 9 15 30.07 1018 10 16 0.00 0.00
4:53 pm 16:53 Mostly Cloudy 32 0 21 -6.1 64 64 W 8 13 30.09 1019 10 16 0.00 0.00
5:53 pm 17:53 Mostly Clear 27 -2.8 21 -6.1 78 78 WNW 7 11 30.11 1020 10 16 0.00 0.00
6:53 pm 18:53 Mostly Cloudy 23 -5 21 -6.1 92 92 NW 13 20 30.14 1021 10 16 0.00 0.00
7:04 pm 19:04 Mostly Cloudy 23 -5 21 -6 93 93 NNW 17 28 30.21 1023 10 16 0.00 0.00
7:53 pm 19:53 Cloudy 23 -5 21 -6.1 92 92 NW 13 20 30.16 1021 10 16 0.00 0.00
8:53 pm 20:53 Cloudy 24 -4.4 21 -6.1 88 88 WNW 13 20 30.16 1021 10 16 0.00 0.00
9:53 pm 21:53 Cloudy 22 -5.6 20 -6.7 92 92 WNW 5 7 30.17 1022 10 16 0.00 0.00
10:53 pm 22:53 Cloudy 23 -5 20 -6.7 88 88 WNW 7 11 30.16 1022 10 16 0.00 0.00
11:53 pm 23:53 Cloudy 22 -5.6 20 -6.7 92 92 W 9 15 30.17 1022 9 14 0.00 0.00

Powered by AerisWeather